Mexico City Airport, Mexico

11:27 PM CDT on August 17, 2017 (GMT -0500)
Lic Benito Juarez International

Weather History for MMMX - March, 2011

Change the Weather History Date:

Wednesday, March 16, 2011

  Actual Average Record
Temperature  
Mean Temperature 62 °F -  
Max Temperature 75 °F 77 °F 86 °F (2002)
Min Temperature 48 °F 48 °F 44 °F (1999)
Degree Days  
Heating Degree Days 4    
Growing Degree Days 12 (Base 50)    
Moisture  
Dew Point 35 °F    
Average Humidity 44    
Maximum Humidity 82    
Minimum Humidity 11    
Precipitation  
Precipitation 0.00 in - - ()
Sea Level Pressure  
Sea Level Pressure 30.27 in    
Wind  
Wind Speed 6 mph ()    
Max Wind Speed 21 mph    
Max Gust Speed -    
Visibility 6.8 miles    
Events      
Averages and records for this station are not official NWS values.
T = Trace of Precipitation, MM = Missing Value Source: Averaged Metar Reports

Daily Weather History Graph

Daily Weather History Graph

Search for Another Location

Airport or City:

Trip Planner

Search our weather history database for the weather conditions in past years. The results will help you decide how hot, cold, wet, or windy it might be!

Date:

Astronomy

Mar. 16, 2011 Rise Set
Actual Time 6:44 AM CST 6:46 PM CST
Civil Twilight 6:22 AM CST 7:08 PM CST
Nautical Twilight 5:56 AM CST 7:33 PM CST
Astronomical Twilight 5:31 AM CST 7:59 PM CST
Moon 3:51 PM CST (3/16) 4:03 AM CST (3/16)
Length of Visible Light 12h 46m
Length of Day
12h 02m
Waxing Gibbous, 87% of the Moon is Illuminated
Mar 16
Waxing Gibbous
Mar 19
Full
Mar 26
Last Quarter
Apr 3
New
Apr 11
First Quarter

Hourly Weather History & Observations

Time (CST) Temp. Dew Point Humidity Pressure Visibility Wind Dir Wind Speed Gust Speed Precip Events Conditions
12:43 AM 55.4 °F 41.0 °F 58% 30.42 in 10.0 mi North 8.1 mph - N/A   Mostly Cloudy
1:47 AM 55.4 °F 41.0 °F 58% 30.40 in 10.0 mi WNW 8.1 mph - N/A   Mostly Cloudy
2:48 AM 53.6 °F 39.2 °F 58% 29.99 in 10.0 mi NNW 3.5 mph - N/A   Mostly Cloudy
3:45 AM 53.6 °F 42.8 °F 67% 30.37 in 10.0 mi West 5.8 mph - N/A   Partly Cloudy
4:47 AM 53.6 °F 44.6 °F 72% 30.37 in 7.0 mi West 4.6 mph - N/A   Clear
5:49 AM 48.2 °F 42.8 °F 82% 30.01 in 7.0 mi NE 3.5 mph - N/A   Clear
6:20 AM 48.2 °F 42.8 °F 82% 30.37 in 6.0 mi NE 3.5 mph - N/A   Clear
6:48 AM 48.2 °F 42.8 °F 82% 30.38 in 4.0 mi NNE 5.8 mph - N/A   Clear
7:20 AM 48.2 °F 42.8 °F 82% 30.38 in 3.0 mi NE 5.8 mph - N/A   Clear
7:45 AM 50.0 °F 42.8 °F 76% 30.39 in 3.0 mi NE 6.9 mph - N/A   Haze
8:20 AM 51.8 °F 39.2 °F 62% 30.41 in 3.0 mi NE 5.8 mph - N/A   Haze
8:41 AM 55.4 °F 39.2 °F 54% 30.42 in 3.0 mi NE 5.8 mph - N/A   Haze
8:45 AM 55.4 °F 39.2 °F 54% 30.07 in 3.0 mi NE 5.8 mph - N/A   Haze
9:20 AM 59.0 °F 42.8 °F 55% 30.42 in 3.0 mi NE 4.6 mph - N/A   Haze
9:22 AM 59.0 °F 42.8 °F 55% 30.42 in 3.0 mi ENE 4.6 mph - N/A   Haze
9:45 AM 60.8 °F 42.8 °F 52% 30.42 in 3.0 mi East 4.6 mph - N/A   Haze
10:41 AM 64.4 °F 39.2 °F 40% 30.41 in 4.0 mi Calm Calm - N/A   Clear
10:47 AM 64.4 °F 39.2 °F 40% 30.41 in 4.0 mi NNE 3.5 mph - N/A   Clear
11:41 AM 68.0 °F 32.0 °F 26% 30.38 in 6.0 mi North 5.8 mph - N/A   Partly Cloudy
11:47 AM 68.0 °F 32.0 °F 26% 29.94 in 6.0 mi North 3.5 mph - N/A   Partly Cloudy
12:30 PM 71.6 °F 24.8 °F 17% 30.35 in 6.0 mi Calm Calm - N/A   Partly Cloudy
12:45 PM 71.6 °F 21.2 °F 15% 30.34 in 8.0 mi NNE 6.9 mph - N/A   Partly Cloudy
1:48 PM 73.4 °F 21.2 °F 14% 30.31 in 8.0 mi NW 4.6 mph - N/A   Partly Cloudy
2:51 PM 75.2 °F 19.4 °F 12% 29.83 in 8.0 mi NNW 5.8 mph - N/A   Mostly Cloudy
3:45 PM 75.2 °F 21.2 °F 13% 30.26 in 10.0 mi NNE 8.1 mph - N/A   Scattered Clouds
4:47 PM 75.2 °F 17.6 °F 11% 30.25 in 10.0 mi NNE 8.1 mph - N/A   Scattered Clouds
5:48 PM 73.4 °F 19.4 °F 13% 29.85 in 8.0 mi NNE 4.6 mph - N/A   Scattered Clouds
6:15 PM 69.8 °F 35.6 °F 28% 30.27 in 7.0 mi NNE 20.7 mph - N/A   Mostly Cloudy
6:47 PM 68.0 °F 35.6 °F 30% 30.29 in 7.0 mi NNE 19.6 mph - N/A   Mostly Cloudy
7:35 PM 64.4 °F 33.8 °F 32% 30.32 in 8.0 mi NNE 19.6 mph - N/A   Mostly Cloudy
7:48 PM 62.6 °F 35.6 °F 37% 30.33 in 8.0 mi North 16.1 mph - N/A   Mostly Cloudy
8:45 PM 62.6 °F 39.2 °F 42% 29.94 in 8.0 mi North 16.1 mph - N/A   Mostly Cloudy
9:45 PM 60.8 °F 33.8 °F 36% 30.40 in 10.0 mi NNW 5.8 mph - N/A   Mostly Cloudy
10:46 PM 60.8 °F 30.2 °F 31% 30.41 in 12.0 mi WNW 9.2 mph - N/A   Mostly Cloudy
11:46 PM 59.0 °F 35.6 °F 42% 29.94 in 12.0 mi WNW 9.2 mph - N/A   Mostly Cloudy